Wind_Speed
17 16 16 16 16 15 15 15 15 15 15 14 14 14 15 14 15 15 15 15 15 14 14 13 12 11 11 12 12 12 14 14 12 10 11 13 15 14 10 9 8 12 12 9 10 8 8 10 11 14 12 10 6 4 7 6 5 3 1 1 0 2 2 2 1 3 6 6 6 5 4 7 7 4 2 1 4 5 4 1 3 10 14 16 23 32 32 33
17 17 16 17 16 16 16 15 15 15 15 15 15 15 15 15 15 15 16 15 15 14 13 13 12 10 10 10 11 12 14 14 12 15 20 14 11 13 15 12 8 10 13 12 14 12 9 9 11 13 9 6 4 5 7 2 4 2 1 2 2 2 2 2 0 4 7 7 7 5 3 5 7 4 2 1 4 5 4 3 7 12 16 19 24 29 29 31
18 17 17 17 16 16 16 16 16 15 15 15 16 16 16 16 16 16 16 16 15 14 13 13 11 9 8 8 9 10 12 12 9 13 15 10 14 16 13 12 9 11 14 15 15 14 12 11 13 12 7 5 4 7 6 2 3 0 2 2 2 4 3 4 4 4 8 9 9 6 3 5 5 3 2 4 5 3 2 3 10 15 18 20 19 23 27 28
18 18 17 17 17 17 16 16 16 16 16 15 16 16 16 17 17 17 16 16 15 14 13 12 11 9 7 7 7 9 10 8 5 6 4 2 14 18 16 14 12 12 14 15 14 14 15 14 13 9 6 5 5 8 5 4 2 2 2 2 3 6 4 4 6 7 9 9 8 7 6 6 3 2 3 6 6 1 2 1 8 18 19 20 18 19 24 24
17 17 17 17 17 17 17 17 17 17 16 16 16 16 17 17 17 17 17 17 16 14 13 12 11 8 6 6 5 7 7 2 2 2 4 2 10 16 18 17 14 13 14 15 13 14 16 14 11 7 5 4 6 6 5 8 7 3 4 3 4 6 4 5 8 10 9 8 8 7 7 6 2 3 2 5 4 2 3 1 5 18 19 19 19 17 20 20
17 17 17 17 17 17 18 17 17 17 17 17 17 17 17 17 17 18 18 18 16 14 13 11 10 7 4 5 4 4 3 1 3 3 4 4 5 13 16 16 14 12 13 14 13 13 13 12 9 6 4 4 6 7 5 10 9 4 3 3 3 5 4 6 9 10 9 8 8 6 5 5 5 4 1 2 3 2 3 1 4 16 20 20 20 17 17 17
16 17 17 17 17 18 18 18 18 18 17 17 17 17 17 17 18 19 19 19 16 14 12 11 9 5 4 3 3 2 2 6 11 7 2 4 6 10 14 15 13 11 13 14 12 10 10 10 8 5 5 5 6 9 6 10 9 5 2 2 3 4 6 9 11 11 10 9 6 7 7 6 7 5 1 2 2 2 2 2 3 14 21 20 18 15 16 17
17 17 17 17 18 18 18 18 18 18 17 16 17 17 17 18 19 20 20 19 16 14 12 10 8 4 3 3 2 2 4 9 10 5 4 4 7 9 14 16 14 13 15 15 13 11 9 9 8 6 5 6 7 10 5 9 6 3 5 3 3 2 9 10 10 12 11 9 6 8 7 5 6 4 3 2 3 3 3 4 3 11 19 17 15 15 15 16
18 18 18 18 18 18 18 19 18 18 17 16 16 16 17 19 20 21 21 19 17 14 11 9 6 2 1 2 3 3 3 7 8 6 5 4 6 10 15 16 16 15 14 16 16 13 9 7 8 7 5 6 7 9 3 4 3 4 6 6 2 3 11 12 11 13 10 8 7 8 7 5 4 3 2 1 2 4 5 6 4 10 17 15 14 14 14 13
20 20 19 19 19 19 19 19 19 18 17 16 15 15 17 18 20 21 20 19 17 13 9 7 4 2 1 3 2 3 2 10 11 5 2 5 8 13 17 16 17 18 13 14 16 14 10 7 7 7 6 7 6 8 6 3 4 10 10 7 3 5 9 12 11 13 11 8 9 9 8 5 2 1 1 2 2 4 7 10 7 10 16 14 14 13 13 13
22 22 21 21 20 20 19 19 19 19 17 15 15 16 17 17 18 19 19 17 14 10 7 5 4 3 3 5 2 5 4 7 10 5 3 6 9 14 18 16 17 19 14 12 14 16 14 12 9 5 4 4 4 8 6 5 4 10 15 9 9 12 10 14 11 11 12 9 9 10 10 6 2 1 1 4 3 3 8 12 10 12 14 13 14 13 11 12
23 23 23 22 22 21 21 20 19 18 17 16 15 16 16 16 17 17 16 12 9 6 4 5 5 5 3 5 5 11 8 2 5 9 7 8 9 11 15 17 17 19 16 11 12 18 19 17 13 7 4 2 3 5 4 7 9 4 12 9 12 12 10 16 13 12 12 9 11 11 9 4 2 2 3 5 3 3 6 9 11 12 13 11 13 11 8 11
24 24 24 23 23 22 22 20 18 18 17 16 15 15 15 15 15 14 12 7 5 3 4 5 6 5 2 3 10 14 10 7 3 7 7 7 8 9 11 14 15 17 18 15 14 18 19 18 14 8 7 5 3 3 8 9 9 5 5 6 6 5 9 15 14 13 12 11 15 9 5 3 4 4 5 5 5 3 3 6 10 11 13 11 11 10 8 11
24 25 25 25 24 23 23 20 18 17 17 16 14 14 14 14 13 10 6 3 2 1 4 5 7 4 2 6 12 11 7 9 7 4 8 9 10 11 11 14 15 17 19 19 18 16 17 18 12 7 5 5 4 6 9 8 5 5 4 4 4 3 5 10 10 13 11 10 15 6 2 5 5 5 5 4 5 4 4 6 10 11 11 11 11 10 9 11
25 26 26 26 25 24 23 20 18 17 17 16 14 14 13 11 9 7 4 0 0 2 3 4 6 4 3 9 14 7 6 9 10 8 10 11 11 11 12 16 17 17 19 20 20 17 14 13 8 4 4 3 4 5 5 4 3 4 3 3 4 4 5 6 7 11 11 10 13 5 2 4 4 6 5 4 5 5 5 4 6 10 10 10 12 11 9 10
25 26 26 25 24 23 22 21 19 17 16 14 13 13 11 9 7 6 4 2 2 3 4 2 7 7 3 4 7 5 8 9 11 11 10 13 13 11 14 16 15 17 18 19 19 15 10 8 3 2 3 2 2 4 4 4 4 4 3 4 4 7 9 7 4 7 12 12 10 4 3 2 3 6 4 3 5 4 4 3 2 5 8 11 12 10 8 9
26 27 27 26 24 22 21 21 19 17 15 13 13 12 8 7 6 5 4 2 2 3 4 5 6 6 5 6 6 4 9 10 12 12 11 13 13 13 14 12 10 13 15 16 16 11 7 6 1 2 0 1 3 3 3 4 4 4 4 4 5 8 11 8 3 4 11 12 6 4 5 3 4 7 4 2 5 5 4 3 2 1 2 7 11 11 7 10
26 27 27 26 24 22 20 20 18 16 14 13 13 10 7 7 7 6 4 1 0 2 6 10 7 2 5 8 7 7 12 12 11 12 11 12 14 14 13 9 7 10 10 9 10 6 2 2 2 1 2 3 4 3 4 5 6 6 7 5 6 7 12 11 7 7 11 11 7 5 4 5 6 7 4 3 4 6 5 4 2 0 1 2 7 10 8 10
26 27 27 26 25 22 19 18 17 15 14 13 11 10 9 8 7 7 5 3 2 2 4 4 5 3 5 6 10 11 10 11 9 9 10 11 11 11 11 9 7 8 6 3 4 4 1 1 3 2 3 4 6 7 6 8 11 9 6 6 7 6 10 13 10 11 14 11 8 6 5 6 8 8 7 5 4 5 5 4 2 0 2 2 1 4 8 12
25 26 27 25 23 21 19 17 16 14 13 12 10 8 6 4 3 2 4 6 7 8 7 5 8 9 10 8 6 6 10 9 7 6 9 11 8 8 7 7 6 6 5 4 5 4 3 2 4 4 5 7 9 11 11 11 13 12 9 6 7 6 7 14 12 13 14 10 7 7 7 7 9 9 9 8 6 6 5 5 4 0 1 1 2 1 6 12
25 26 25 24 22 20 19 17 14 13 11 9 7 4 4 5 4 3 0 6 11 14 13 13 13 12 13 11 4 9 11 5 7 5 8 9 8 7 5 5 5 4 5 6 5 4 4 4 5 7 9 10 11 11 12 13 14 12 9 7 8 7 5 16 17 16 14 8 6 7 7 7 9 10 11 10 8 8 7 7 7 4 3 3 1 2 1 6
24 24 24 23 21 18 18 16 14 13 10 6 3 2 5 8 8 8 6 5 9 13 15 16 16 12 13 13 7 4 6 6 6 5 9 9 7 6 5 6 5 4 6 7 4 4 5 4 7 9 10 11 11 11 11 12 13 9 6 6 6 3 7 12 14 17 12 6 7 9 6 6 7 9 11 11 9 8 8 8 8 7 6 5 2 1 3 2
22 23 23 21 21 19 16 15 14 14 11 7 5 5 7 10 11 13 8 5 8 11 11 14 13 9 10 8 2 4 4 5 6 6 10 9 5 5 6 6 6 6 7 7 5 4 4 6 9 10 9 10 11 11 9 9 9 6 5 5 5 3 7 7 10 14 10 7 11 10 5 4 6 6 7 7 5 6 6 5 6 7 6 6 3 2 3 3
21 22 21 20 21 18 16 17 15 16 14 10 10 10 11 12 11 13 7 4 6 9 10 10 10 7 8 5 4 4 6 3 5 7 12 8 5 4 6 7 6 6 6 9 9 7 5 8 12 11 11 10 10 10 9 7 5 6 8 7 7 5 6 8 10 12 8 9 13 11 4 1 4 7 6 2 3 3 6 5 5 6 4 4 3 1 3 3
21 21 19 20 20 18 20 18 12 13 10 9 14 12 10 9 9 12 6 3 3 5 8 7 6 4 5 6 8 7 5 4 6 6 13 10 7 4 4 5 4 5 8 10 10 8 8 8 12 13 12 11 9 8 8 7 5 5 9 9 10 7 7 11 11 10 5 6 11 11 4 2 3 7 8 6 3 5 7 7 7 6 5 5 5 3 4 4
20 20 18 18 18 19 18 9 7 14 10 12 14 8 5 5 8 10 4 2 3 2 4 3 2 2 2 4 7 3 3 5 7 8 15 12 11 5 4 4 3 5 8 9 7 4 6 9 9 12 12 10 9 7 8 9 4 3 6 8 12 12 6 12 13 10 5 6 12 11 5 1 2 5 9 11 10 9 8 9 9 7 7 6 5 5 4 5
20 19 18 17 18 18 12 7 15 19 9 6 10 11 8 7 8 7 2 1 1 1 2 1 1 3 2 4 6 2 2 4 7 9 13 13 10 5 4 4 2 5 6 5 4 3 7 11 10 9 11 9 8 6 7 7 3 3 8 8 10 12 10 8 11 7 3 6 11 10 6 5 3 5 9 13 13 10 9 10 9 8 8 7 6 7 6 6
20 19 18 16 16 16 13 15 18 14 8 10 14 12 10 10 9 4 1 1 2 1 1 1 1 3 4 5 6 4 5 3 6 7 14 16 11 3 5 8 5 6 6 4 3 4 9 11 10 9 8 7 6 7 7 6 4 5 10 10 7 8 12 9 6 4 2 5 5 7 6 5 3 4 7 11 12 12 13 13 11 11 10 9 8 8 8 7
20 19 19 17 16 15 14 15 14 9 11 14 12 10 9 10 7 1 1 2 1 1 1 2 2 2 4 5 6 7 8 3 2 5 13 14 10 5 4 7 7 9 9 7 6 5 6 8 9 9 6 5 7 9 11 9 6 6 9 11 7 7 11 8 4 4 3 4 5 9 8 4 2 5 7 9 10 12 14 13 13 13 11 11 10 8 8 8
20 19 20 20 15 10 10 13 14 10 12 13 12 11 11 9 3 0 1 1 1 2 2 1 2 3 4 4 5 7 9 5 4 4 6 7 9 7 3 5 5 7 8 6 5 8 7 7 9 7 6 6 4 3 6 6 5 4 6 8 8 6 6 4 2 5 1 2 3 8 8 7 3 6 8 7 8 11 12 11 11 13 12 13 12 8 8 8
19 19 20 20 16 11 8 10 10 11 10 11 12 12 11 4 0 1 1 1 2 1 3 2 4 6 6 5 4 6 9 6 7 6 5 3 5 5 2 5 4 3 5 4 4 9 11 7 6 6 6 3 2 3 1 5 8 5 4 4 4 5 4 3 1 5 1 3 3 5 4 7 2 5 9 7 7 12 12 12 14 15 14 14 12 9 9 9
18 19 20 20 19 17 13 8 8 13 12 11 11 9 5 2 1 2 1 1 2 1 3 2 8 5 6 6 6 5 6 4 6 4 2 3 2 3 5 4 2 2 3 3 4 7 8 8 8 8 5 3 4 1 1 5 8 5 4 3 3 3 2 0 2 3 3 3 3 6 2 4 2 2 11 11 10 13 11 10 13 16 16 14 12 11 9 9
17 19 21 20 20 19 16 12 9 10 12 13 9 4 1 3 2 4 4 4 1 1 7 2 6 4 6 6 6 7 5 4 6 4 1 5 3 4 7 7 5 4 3 3 4 5 5 8 7 6 6 5 3 2 3 3 5 5 4 3 4 2 1 1 1 2 2 3 6 9 1 3 1 3 8 10 10 12 10 9 11 13 14 13 11 10 9 8
17 20 21 20 19 18 16 12 8 7 11 11 5 2 2 1 1 5 5 7 3 2 4 4 1 1 5 4 5 6 5 5 6 6 3 4 3 3 4 6 8 7 4 4 3 2 4 6 3 2 4 8 6 6 6 3 2 5 4 3 4 3 3 2 1 2 1 4 8 8 1 3 3 2 5 9 9 9 9 8 9 10 10 10 10 9 9 8
17 18 20 20 20 18 14 10 7 6 9 6 3 3 2 1 1 4 3 5 6 3 4 5 5 2 3 2 4 3 3 2 4 5 5 3 2 2 3 3 8 8 3 2 3 2 5 3 3 2 5 10 9 8 7 2 2 4 4 3 4 4 4 3 2 5 5 4 3 2 2 3 2 4 5 5 7 7 8 8 8 8 8 9 8 8 10 8
17 17 17 19 20 17 12 9 8 6 6 4 1 0 2 1 3 4 3 4 7 8 9 6 4 2 1 1 3 2 6 3 6 2 4 2 4 5 6 2 2 2 3 2 2 3 3 3 3 3 7 7 10 8 7 3 1 3 4 4 5 4 2 3 3 5 6 4 1 2 5 3 2 4 7 6 5 7 10 9 8 8 7 7 6 6 8 8
17 15 13 18 22 19 14 11 9 7 5 2 1 3 3 2 2 4 4 5 6 8 8 4 3 5 4 2 2 4 5 2 5 2 2 1 4 9 10 6 8 10 8 5 1 3 3 5 8 7 11 9 9 9 7 7 5 3 4 4 3 4 3 3 1 3 2 3 1 4 10 8 4 2 1 1 1 5 9 10 9 9 9 8 6 6 5 4
15 11 10 19 22 15 10 11 10 7 3 1 2 4 4 3 3 4 3 5 5 7 7 3 4 6 5 4 5 7 3 1 3 3 4 5 3 9 11 8 12 13 11 8 3 4 5 4 6 5 10 10 7 7 3 6 7 6 3 2 2 2 3 1 3 0 2 1 1 2 5 5 2 2 7 8 5 5 8 10 10 10 10 9 8 8 7 5
10 4 5 14 15 8 7 8 10 6 3 0 2 3 3 5 3 4 4 4 3 5 4 3 5 5 6 5 4 5 2 1 4 4 3 3 2 7 11 8 10 12 12 10 4 4 4 2 4 6 9 6 4 5 1 4 5 7 4 2 2 3 1 1 2 2 2 2 4 3 2 2 2 1 4 9 8 8 9 9 9 10 10 9 8 7 7 4
6 3 4 10 9 9 7 6 5 4 3 1 2 2 4 6 4 3 2 3 2 2 2 3 6 4 5 4 2 4 3 1 3 4 2 2 1 5 11 9 9 11 11 9 6 4 3 1 1 7 12 8 1 2 3 4 2 5 4 1 2 1 1 1 1 2 3 1 4 4 1 1 2 3 2 2 3 6 11 10 9 10 10 9 8 7 6 4
4 3 3 4 1 6 8 6 2 4 3 1 1 3 4 5 5 4 1 2 2 2 2 3 4 2 2 3 3 4 4 1 5 2 1 1 1 3 7 8 8 9 9 7 5 3 3 2 2 4 7 6 3 2 4 6 5 3 3 2 3 1 2 1 3 4 4 1 4 6 4 1 2 2 2 1 2 4 11 11 9 10 10 9 9 9 7 7
3 3 4 1 1 5 5 3 4 4 3 1 2 2 3 3 4 4 2 2 3 2 1 3 5 3 2 1 3 4 4 3 5 2 1 4 4 3 5 7 9 9 6 4 4 3 2 2 3 4 4 6 12 10 6 8 10 7 2 3 4 2 2 2 2 4 4 2 6 6 5 3 1 1 1 4 3 5 9 10 9 9 9 9 10 10 9 10
1 6 9 2 4 6 4 3 4 1 3 1 2 1 2 3 5 6 5 4 3 3 2 1 3 2 1 2 3 3 4 4 4 4 4 4 4 5 6 8 9 7 5 4 5 5 3 2 2 5 5 6 14 11 9 8 9 7 3 3 3 2 3 3 2 2 0 2 5 5 4 4 2 1 0 3 6 8 11 10 10 8 7 8 9 9 9 9
3 6 7 3 8 6 4 1 2 2 3 0 1 4 3 4 6 7 6 6 4 3 3 2 3 1 1 2 3 3 1 2 2 2 5 4 2 4 6 7 7 5 3 2 3 3 3 3 2 3 4 5 8 4 4 3 3 2 4 5 6 6 1 3 2 2 3 1 4 7 4 2 1 1 1 1 4 10 14 12 10 8 6 7 8 8 8 8
4 3 3 5 10 7 1 2 2 2 2 1 2 2 3 4 3 3 5 6 4 3 3 3 1 1 1 2 4 5 2 1 2 3 3 3 1 4 5 6 5 4 3 3 5 4 2 2 2 1 2 3 3 2 1 2 3 3 4 7 10 7 3 3 4 5 4 2 1 6 6 4 4 4 2 2 5 11 14 12 11 10 8 8 8 8 8 8
2 2 3 2 4 3 1 2 2 3 2 2 3 4 1 4 4 3 3 4 4 5 4 2 1 0 2 1 2 5 3 3 3 1 2 3 2 3 3 4 3 4 6 8 7 4 1 2 2 3 2 2 4 5 5 3 4 4 4 10 10 3 8 5 4 4 3 1 3 4 10 10 9 5 1 1 2 8 13 12 11 10 9 9 8 8 8 8
2 3 2 2 3 3 3 3 4 4 4 3 2 4 4 3 4 4 3 3 2 4 4 3 4 1 2 3 1 3 2 4 5 3 3 2 2 3 2 2 2 4 8 7 3 2 2 2 3 1 2 7 8 8 7 5 7 6 5 11 11 1 6 4 5 5 6 5 5 4 11 13 12 12 9 3 3 6 12 12 10 10 10 9 8 9 9 9
3 3 4 3 2 2 4 4 4 5 6 5 1 3 4 6 4 4 4 4 4 3 3 1 3 3 4 4 4 3 1 2 3 1 2 2 2 2 2 3 2 5 7 5 5 3 1 2 4 5 5 9 9 10 8 5 6 8 8 11 11 2 5 4 4 5 6 6 6 8 10 11 11 12 13 10 8 9 13 13 13 12 11 10 9 10 10 11
4 3 5 6 4 3 3 3 1 5 5 3 2 4 5 6 6 5 4 5 4 3 3 3 5 8 7 7 5 3 2 3 2 3 4 4 3 3 1 1 4 6 5 4 4 2 1 2 4 7 7 7 9 12 9 6 6 8 9 10 11 9 8 8 6 9 12 10 11 12 11 8 4 4 9 11 9 10 12 12 13 13 12 12 11 11 11 11
5 2 5 7 6 4 3 4 2 3 3 1 1 3 3 5 7 5 5 6 4 2 3 4 6 7 7 7 6 4 4 3 3 1 2 4 2 2 2 2 3 5 5 4 3 1 2 3 5 5 4 7 11 11 6 5 8 8 9 10 9 9 9 8 6 12 14 10 11 14 12 8 2 3 5 11 10 10 11 11 12 12 13 13 12 11 11 10
9 8 6 4 4 3 2 3 2 2 3 2 2 3 3 5 4 2 3 6 5 5 6 5 5 4 5 7 6 6 5 2 2 1 2 3 2 1 1 1 2 4 4 3 2 3 2 3 5 4 2 4 9 7 3 2 8 7 8 11 7 3 4 4 4 8 11 11 11 11 8 6 3 3 3 10 13 13 13 12 11 10 12 13 12 10 9 8
13 11 9 4 3 4 3 4 1 4 2 1 2 3 4 5 5 4 3 3 3 6 7 6 5 4 3 5 6 6 6 6 5 4 3 3 3 1 1 0 1 1 2 3 2 2 2 2 3 4 1 4 7 9 4 3 4 4 4 9 8 1 1 4 6 6 12 13 9 6 6 7 7 6 7 10 12 13 12 11 10 10 11 12 11 10 9 8
Wind_Direction
345 343 344 343 342 342 340 340 339 337 335 334 332 331 328 326 325 324 324 321 319 317 316 318 320 325 323 325 328 327 328 323 319 288 246 249 245 220 223 251 239 208 202 208 201 210 217 202 230 240 242 250 229 223 239 207 125 87 50 103 183 279 292 298 345 109 126 134 149 198 220 131 137 187 202 228 59 96 147 82 135 132 130 130 131 139 143 139
342 342 342 341 341 340 338 337 336 335 333 331 330 330 327 325 324 324 323 322 320 317 317 316 316 323 322 329 330 329 331 320 304 269 253 253 246 223 221 233 237 206 194 197 200 208 215 198 213 227 232 240 231 219 223 205 92 102 124 137 216 242 257 266 170 122 133 138 144 181 222 129 139 165 145 141 101 125 155 140 147 133 127 129 135 139 137 135
342 342 342 340 340 337 336 335 334 333 331 330 329 327 325 324 324 324 323 322 321 319 317 314 315 319 323 332 333 336 332 316 290 262 269 258 223 210 205 220 221 204 198 197 199 208 219 220 214 213 224 229 239 235 211 115 65 233 202 163 228 239 244 214 189 133 131 143 142 157 164 108 129 152 116 127 113 129 158 127 139 135 134 137 140 140 137 137
343 342 341 340 338 336 334 333 333 332 330 330 327 325 324 322 323 323 323 322 321 320 316 314 315 316 328 335 337 343 328 307 270 248 299 234 205 197 198 218 214 205 211 206 207 221 229 237 230 214 220 226 235 240 211 128 137 226 215 167 194 219 220 181 169 133 136 148 137 134 118 101 97 85 118 130 108 126 213 318 141 140 140 140 142 142 141 139
344 342 342 340 338 335 333 331 331 330 328 327 326 325 322 321 323 323 323 322 321 318 314 312 312 314 327 337 349 347 329 322 109 115 60 84 198 194 198 211 211 210 215 212 223 241 243 246 243 221 215 239 247 236 177 155 163 181 227 203 186 205 189 163 158 141 146 139 123 125 117 121 105 73 112 133 128 208 180 278 158 144 142 142 144 145 143 140
343 342 341 339 336 334 332 330 328 326 326 325 325 323 321 321 322 323 322 322 321 316 313 311 309 316 325 341 7 345 322 292 337 7 38 52 171 191 194 201 209 211 209 212 230 247 247 242 242 229 210 233 252 253 197 164 161 162 241 234 213 219 182 164 160 151 149 134 130 133 119 130 117 91 70 107 130 193 146 185 162 143 144 144 145 148 143 141
342 341 339 337 335 333 331 328 326 324 322 322 322 321 321 322 323 324 322 320 322 318 313 308 305 316 326 341 1 321 246 265 290 291 282 65 119 182 191 197 205 200 197 209 223 235 244 233 227 227 226 229 236 256 231 161 152 141 169 252 281 239 186 167 159 157 151 135 128 128 127 135 122 110 97 68 116 145 130 148 133 138 144 145 147 149 142 147
341 340 337 336 333 331 329 327 326 322 320 319 318 320 322 324 325 323 321 320 320 318 311 306 303 312 342 350 317 255 235 257 268 234 186 118 120 166 185 196 203 195 196 210 216 222 239 233 223 224 230 235 242 258 222 136 143 146 142 186 300 238 175 165 157 158 147 127 119 125 121 116 122 126 115 108 146 151 141 142 121 140 146 146 149 148 144 155
340 338 336 333 332 330 327 326 324 321 318 316 315 321 323 323 325 322 321 320 318 316 306 296 294 293 19 334 286 267 250 223 211 182 169 171 160 171 181 193 199 195 200 215 221 226 234 223 221 233 242 253 264 275 276 109 193 184 147 153 199 218 167 159 160 158 144 130 137 128 105 89 117 131 99 103 156 132 136 148 153 150 149 149 152 150 149 159
339 337 335 333 331 329 326 324 322 320 318 314 316 322 322 322 323 321 320 319 317 312 299 285 268 185 194 273 258 274 228 162 172 185 174 190 186 182 183 190 192 190 200 216 221 231 239 234 223 231 253 270 278 276 278 288 214 162 149 134 141 247 186 158 163 155 140 140 148 129 112 104 101 77 99 216 176 113 138 157 173 161 152 154 155 151 153 161
339 337 335 333 331 329 327 324 321 320 317 315 320 322 322 321 320 320 319 319 319 310 292 265 223 167 234 268 235 253 247 152 161 158 139 187 192 193 187 184 186 187 198 214 219 228 238 248 252 246 234 250 272 270 278 320 315 156 154 147 176 226 198 155 158 154 143 139 141 123 107 108 90 349 202 181 165 117 145 160 174 165 155 158 155 151 160 163
340 338 337 334 331 330 327 325 323 321 318 318 322 321 320 320 319 319 320 321 322 308 264 233 184 153 254 277 237 235 242 233 172 144 148 188 199 209 193 184 188 189 198 211 217 226 238 250 258 264 253 267 258 261 309 326 311 201 159 158 189 207 163 149 161 164 153 135 142 129 98 112 179 187 184 163 135 108 137 162 174 163 155 158 153 154 166 158
341 339 338 337 333 331 329 327 325 322 320 321 321 320 318 317 319 319 322 332 331 296 229 204 160 156 276 261 242 243 250 270 243 140 158 191 198 206 196 192 195 194 205 219 217 218 232 246 256 266 273 291 285 317 334 311 290 261 183 163 183 166 140 162 167 158 146 135 159 154 94 174 193 165 172 144 130 126 124 174 181 162 158 161 152 157 164 156
342 341 341 340 336 333 331 329 328 323 319 323 322 318 316 314 316 316 319 342 342 261 201 175 147 151 241 254 268 274 266 265 265 203 182 188 194 190 192 203 202 200 213 229 237 229 225 239 255 277 286 295 316 341 332 310 292 276 238 173 159 111 144 176 160 143 129 145 179 187 88 170 161 155 177 139 137 150 150 190 184 161 161 157 145 159 167 164
342 342 342 340 337 334 331 330 328 322 320 325 320 314 314 314 314 313 310 272 256 208 191 177 163 178 264 272 285 283 223 248 262 242 198 186 195 183 189 207 203 203 217 230 247 253 230 229 243 259 280 304 318 311 299 295 300 277 252 199 162 122 139 172 164 147 132 158 196 205 94 145 150 169 188 149 145 161 166 188 177 164 166 149 143 167 175 168
342 343 342 339 337 333 331 330 327 323 324 322 316 315 316 317 317 308 295 270 256 183 161 188 195 207 276 289 284 244 204 230 246 237 204 193 198 182 188 204 196 198 219 229 242 259 238 216 229 243 263 298 282 266 277 290 275 248 224 215 180 144 148 160 170 159 141 154 195 197 126 148 170 173 180 150 148 163 161 114 119 177 173 149 145 173 179 162
342 342 341 339 336 334 331 328 326 324 322 317 316 318 316 319 315 303 294 276 274 202 209 275 239 208 253 275 288 243 209 224 231 219 202 200 201 183 181 195 189 192 218 229 232 247 228 196 139 32 211 263 260 229 237 258 253 237 207 237 228 166 154 151 157 163 144 148 172 153 137 159 155 150 154 176 155 158 159 113 84 275 179 144 153 176 173 152
341 341 341 339 336 336 332 326 325 323 317 316 319 320 316 310 296 293 299 256 6 269 261 279 275 227 254 258 257 223 203 208 214 201 193 204 207 188 178 188 181 187 212 229 225 224 215 161 112 60 204 221 258 231 207 221 232 218 183 211 245 185 158 158 168 171 156 153 154 139 141 145 129 136 161 218 178 157 153 130 128 280 21 102 159 176 161 150
340 341 340 338 336 336 332 326 324 317 312 315 319 316 307 296 280 271 254 202 160 256 270 239 205 235 301 260 234 225 189 175 186 188 188 200 206 185 180 193 183 188 201 195 197 189 164 101 134 201 227 207 224 229 232 238 242 244 214 208 230 207 164 160 163 166 162 151 145 150 156 149 140 151 179 203 188 155 145 130 128 354 40 29 199 182 153 156
340 341 339 337 336 335 332 327 320 313 313 320 332 329 310 301 288 241 211 213 214 231 259 250 212 239 292 294 226 167 124 150 191 197 199 198 186 168 178 199 187 193 202 173 176 178 172 182 181 201 217 218 219 224 239 255 259 268 282 271 256 253 170 153 155 168 164 143 150 166 155 156 153 161 180 182 169 160 151 142 146 124 58 237 281 279 158 162
339 340 339 336 336 335 333 331 319 311 312 319 339 337 301 311 325 16 5 232 228 227 240 257 252 248 273 286 224 143 123 171 229 204 197 188 162 151 166 192 190 189 210 202 187 179 187 201 211 207 212 224 228 223 228 249 264 272 285 289 286 289 156 143 147 159 162 138 153 169 149 160 162 163 175 170 163 169 168 161 165 168 173 217 274 337 232 171
340 341 338 334 335 334 332 330 319 311 307 303 318 255 269 298 314 341 340 281 257 240 229 241 257 263 264 271 263 197 147 171 216 195 170 168 161 156 161 183 195 180 201 220 201 172 195 219 227 217 213 221 233 238 228 235 253 266 279 279 283 300 115 131 143 152 158 133 145 165 155 163 162 160 170 168 169 174 173 166 167 174 184 210 207 127 278 251
340 340 336 333 332 331 330 326 318 308 290 258 229 226 272 299 321 340 332 292 289 272 240 223 237 257 262 272 315 299 274 170 199 200 165 173 188 177 176 184 201 193 192 215 211 183 187 206 224 229 226 219 227 243 244 241 244 246 257 265 268 228 130 134 151 152 157 140 143 152 143 145 148 151 165 165 162 161 161 143 151 180 191 202 200 167 220 263
340 340 336 329 327 330 328 321 312 297 281 258 247 250 278 297 332 355 341 275 285 283 265 220 210 230 252 259 147 206 271 200 204 195 162 181 208 179 197 196 201 211 200 208 214 221 220 197 203 222 235 230 223 229 237 248 248 237 239 242 260 250 136 140 157 149 151 148 140 127 91 83 156 160 161 90 36 133 152 137 147 180 181 179 184 192 220 247
338 338 333 326 324 329 327 320 310 303 294 257 254 261 282 298 343 359 343 283 275 260 253 221 196 215 231 223 177 181 246 227 237 199 157 188 225 185 202 204 200 220 211 211 212 225 241 214 192 202 226 235 232 226 221 230 240 239 234 232 255 265 126 146 161 139 137 167 148 127 95 285 194 173 158 123 140 186 172 172 181 187 181 180 183 203 236 241
336 336 332 326 321 327 331 320 319 323 294 243 258 290 327 324 352 353 343 266 281 221 198 179 182 222 204 209 184 168 275 226 236 200 155 183 233 227 219 204 184 215 218 220 217 210 240 243 212 194 207 223 235 237 222 223 227 249 243 224 244 259 205 172 168 151 167 181 165 153 132 164 217 199 163 144 164 193 196 190 190 192 190 192 189 191 221 235
333 333 329 321 318 330 335 303 320 326 301 269 316 343 359 347 339 338 325 222 299 121 159 154 212 200 172 206 184 148 306 195 208 201 155 169 218 248 253 232 192 221 228 225 226 186 202 235 240 206 199 207 223 241 234 222 199 235 256 234 223 251 258 203 169 171 187 145 165 175 131 122 200 209 169 151 155 177 200 200 192 195 193 192 198 192 196 215
329 330 326 317 313 321 314 300 313 317 311 350 352 342 346 334 320 321 306 333 33 21 264 99 98 175 178 208 210 233 266 199 181 180 148 160 192 217 243 248 264 264 253 236 235 203 191 214 239 227 211 200 201 223 229 224 222 239 258 259 223 226 256 243 174 173 185 128 174 196 126 104 182 174 160 159 158 172 192 194 189 193 193 189 200 202 191 196
326 328 322 314 308 311 315 303 296 292 308 332 342 335 325 306 302 322 252 303 108 202 248 88 102 196 199 201 209 240 258 236 148 155 144 158 193 215 240 254 278 293 279 252 243 240 202 198 221 233 229 205 201 213 213 210 223 239 255 278 278 225 237 241 168 146 188 164 183 195 162 121 163 164 160 170 174 180 187 187 187 188 188 188 193 197 186 182
323 323 319 317 312 315 328 301 285 298 311 314 322 313 288 280 291 273 268 327 47 149 156 60 102 177 214 221 203 224 244 223 127 160 166 164 193 205 274 286 272 300 298 272 273 285 265 212 207 232 237 215 204 202 204 219 250 253 240 270 294 276 261 261 142 98 122 218 203 208 177 128 148 183 174 185 186 179 176 178 184 182 184 190 191 185 180 181
319 318 314 312 310 308 304 288 302 335 326 311 317 299 279 277 274 321 41 33 316 148 182 182 133 165 203 233 225 205 240 234 143 171 209 170 184 186 259 289 247 261 291 296 294 281 269 241 207 225 235 217 60 56 161 247 263 269 240 242 282 297 301 278 167 91 120 247 237 237 172 109 111 186 181 201 190 172 172 174 178 179 181 188 188 178 174 181
313 310 306 302 303 294 276 272 327 344 328 314 312 295 291 37 18 310 36 240 255 343 304 184 144 177 199 219 240 190 231 259 138 165 210 142 206 200 179 224 237 233 264 279 262 255 261 252 212 191 184 107 63 53 252 252 247 246 239 212 218 276 339 103 143 116 198 237 255 249 176 99 4 132 165 182 176 171 174 172 172 173 178 182 182 174 169 174
308 302 297 296 298 289 278 286 312 325 321 311 299 285 348 52 354 297 290 293 220 160 308 294 147 173 175 204 237 175 205 260 142 153 191 153 199 224 197 218 241 239 240 258 247 225 241 253 226 160 138 136 132 192 218 234 224 220 227 181 180 230 59 115 115 90 195 233 255 259 235 109 271 99 141 157 156 164 164 166 170 169 172 174 172 165 160 169
304 294 294 295 294 286 277 278 280 290 304 307 316 17 5 51 338 296 304 332 351 169 285 313 3 181 172 220 249 164 181 238 178 154 170 177 184 212 224 236 245 247 248 269 266 209 234 243 217 87 123 150 172 222 229 241 215 214 234 208 201 212 149 153 134 106 211 240 241 247 212 143 186 124 126 127 126 141 143 150 162 163 167 164 164 159 157 170
306 296 299 295 287 282 274 257 242 256 281 301 36 49 349 53 316 303 332 342 326 337 350 332 322 267 183 222 250 191 116 206 221 167 173 206 160 192 254 236 240 248 248 287 321 315 273 242 140 221 215 166 171 222 236 278 301 231 237 240 229 212 140 149 196 180 196 222 241 229 110 129 130 38 27 70 92 110 120 120 126 142 154 149 157 158 155 171
318 310 307 295 281 276 266 234 208 220 257 285 49 342 311 276 285 313 358 327 312 346 352 324 311 311 328 47 235 238 82 59 299 280 167 174 63 17 345 357 276 315 66 87 318 327 298 305 347 293 257 200 174 201 215 183 200 240 234 233 240 243 166 157 231 226 198 189 211 99 103 105 91 41 3 358 36 86 107 107 100 111 121 126 139 142 146 164
330 320 300 284 275 264 245 215 199 216 247 290 298 290 299 267 296 338 348 319 325 5 358 319 14 21 342 350 341 352 74 88 307 353 51 9 48 10 354 12 18 20 42 56 349 349 11 315 321 333 308 279 186 186 222 204 198 233 224 213 242 281 260 157 145 274 226 170 167 144 143 147 151 136 110 259 104 92 108 116 111 110 106 102 98 90 101 122
329 313 288 279 268 244 204 182 186 216 233 46 308 285 290 289 344 5 343 323 353 30 20 343 28 20 350 9 358 343 14 38 357 41 8 0 37 5 359 6 9 12 13 15 1 336 358 319 305 315 297 279 173 147 252 246 249 259 240 200 184 247 265 166 123 280 268 165 107 104 146 146 114 146 160 157 151 129 123 119 113 111 108 102 89 79 71 58
312 279 284 274 250 187 147 173 185 210 223 125 269 277 315 313 342 22 1 332 356 53 39 14 41 21 356 9 338 324 333 319 7 39 8 356 20 12 13 2 355 2 358 353 339 312 337 325 289 303 307 299 125 108 216 239 257 255 256 287 219 187 169 174 146 171 241 189 119 73 333 308 352 320 166 144 136 134 123 102 90 87 86 92 92 88 83 68
301 278 264 253 222 136 130 180 191 227 234 220 261 287 313 299 310 14 8 309 315 56 51 36 46 22 340 345 327 340 333 268 32 41 12 337 330 33 26 2 346 353 345 336 328 324 345 40 270 318 328 330 56 123 205 218 223 222 225 311 279 224 135 250 277 209 234 204 126 123 128 255 246 290 311 93 103 111 106 93 83 79 69 69 72 74 89 95
288 306 255 247 194 129 149 170 215 242 216 158 276 279 297 295 311 334 336 308 340 41 124 133 110 148 275 340 20 6 334 58 73 32 265 43 27 36 18 352 343 343 335 330 338 12 23 340 321 328 330 322 309 277 239 264 281 232 174 150 260 273 133 242 299 275 254 199 136 135 122 127 193 203 204 165 1 58 95 98 92 85 73 65 58 50 52 63
239 297 291 2 122 203 188 187 259 234 153 56 275 256 293 290 313 330 346 356 356 20 97 134 125 153 205 27 53 24 335 42 68 345 252 100 71 44 11 349 347 345 352 352 333 7 30 286 312 322 313 309 303 288 237 254 279 278 236 177 220 241 151 183 270 279 296 46 98 107 110 101 52 343 152 145 127 81 90 94 89 84 76 70 62 50 43 50
256 298 295 315 159 219 227 210 264 273 102 351 314 33 343 340 353 354 8 16 21 34 16 80 100 78 102 103 77 46 355 20 43 346 349 51 56 38 15 2 358 354 14 10 323 341 343 297 357 331 308 306 299 277 198 213 262 277 281 237 231 236 148 140 172 206 308 82 108 96 90 103 101 285 246 154 161 131 107 96 91 87 78 74 67 57 50 49
306 282 273 180 166 221 266 233 286 37 104 272 51 114 97 30 360 345 354 6 23 36 7 27 79 85 122 130 123 120 100 20 42 358 354 1 24 48 25 8 7 5 34 32 311 331 335 322 2 336 321 332 319 308 156 203 280 314 306 291 277 273 248 86 65 83 70 80 128 114 117 134 121 314 51 150 163 122 108 103 100 91 80 78 71 62 60 54
305 270 253 187 183 199 250 324 332 35 62 28 39 96 128 101 42 342 335 346 5 6 359 30 73 178 146 126 122 123 151 149 68 26 357 315 298 70 36 355 10 25 8 326 296 290 297 299 309 358 355 338 317 309 266 291 313 311 301 285 270 280 351 59 73 65 57 330 61 112 142 151 78 26 1 170 138 111 105 104 102 97 88 81 73 63 61 59
321 282 290 253 210 191 83 329 359 49 19 48 41 336 335 116 100 59 340 341 9 344 346 36 297 159 73 344 133 130 162 148 111 322 290 278 270 92 43 330 23 33 326 314 301 288 282 293 287 115 105 272 252 253 262 284 317 312 296 283 278 357 42 52 85 91 137 154 9 105 146 142 125 122 150 242 118 112 110 105 102 102 97 91 86 80 73 66
298 290 330 11 310 343 47 10 33 56 2 26 66 306 333 53 86 81 20 6 41 334 344 28 321 330 75 334 33 116 188 145 137 222 243 277 294 102 115 280 20 1 318 324 349 351 1 326 313 103 200 253 267 290 306 332 339 337 325 298 292 67 85 73 92 126 153 117 45 106 138 135 142 151 149 157 196 138 118 115 114 108 102 101 100 98 91 79
311 308 349 26 307 346 47 2 9 57 28 21 17 300 6 35 43 67 29 18 55 1 335 64 328 354 86 71 59 59 309 106 102 293 334 8 343 53 139 202 68 10 333 353 43 43 14 308 322 324 281 258 265 286 300 326 335 333 342 334 328 17 102 69 72 115 126 122 129 133 123 123 143 157 153 158 168 138 120 122 121 111 105 102 91 84 83 80
343 331 344 356 338 357 36 324 323 80 57 25 11 2 34 53 51 61 26 12 54 9 330 50 26 16 54 83 89 65 24 62 52 343 5 4 350 21 14 124 62 29 5 7 25 54 84 308 327 328 318 314 302 290 297 330 334 324 335 348 359 25 45 30 34 89 99 111 126 117 99 92 107 157 145 136 126 112 113 117 115 109 104 97 87 75 70 71
357 341 337 338 335 348 4 316 288 114 101 138 71 10 30 63 58 63 32 13 36 6 347 63 57 25 36 61 79 77 65 106 165 168 356 333 341 29 13 18 18 3 14 17 346 28 56 327 322 340 351 331 300 273 267 316 311 310 327 336 353 18 24 20 54 95 103 103 101 100 96 89 46 274 140 116 101 91 92 94 100 105 100 93 87 79 69 61
348 332 336 317 310 339 337 294 292 86 62 40 52 13 36 63 51 64 44 15 16 20 20 55 72 52 49 53 56 55 38 42 115 95 330 317 342 77 77 39 15 346 359 19 348 347 7 320 317 356 18 298 296 284 208 254 287 298 328 328 329 15 14 356 48 96 113 120 108 103 109 120 165 232 120 101 94 87 82 80 85 91 92 92 89 83 76 65
354 337 345 334 292 318 286 259 355 76 78 44 49 32 50 59 38 42 57 20 27 27 16 27 40 35 70 64 44 25 359 351 3 1 339 317 312 303 139 228 255 315 357 22 8 320 344 346 337 356 323 273 310 316 280 222 285 292 331 341 336 343 108 346 5 80 120 133 133 129 139 145 148 141 115 105 97 89 86 85 87 89 92 96 98 92 84 72
Height
799 797 796 795 794 793 791 790 789 787 786 785 783 782 780 779 778 777 776 774 774 772 772 771 771 771 770 770 769 768 767 766 765 766 763 752 749 752 754 755 757 758 761 762 763 765 765 766 766 765 766 766 764 764 761 759 765 782 795 804 808 806 800 793 791 790 792 795 794 792 789 792 797 792 784 781 786 789 790 789 785 783 783 786 789 792 795 799
798 796 795 794 793 791 790 789 788 787 785 784 782 781 779 778 777 776 775 773 772 772 771 770 770 770 769 769 769 768 767 765 764 762 753 746 748 751 752 754 756 758 759 761 762 762 764 765 764 763 766 767 764 761 763 761 768 788 799 803 804 800 791 783 783 782 785 791 791 789 787 787 793 790 784 789 795 792 794 793 789 789 789 789 790 793 796 798
797 796 794 793 792 790 790 788 787 786 784 783 781 780 779 778 776 775 774 773 771 771 770 770 769 769 769 769 768 768 766 765 764 756 744 742 746 748 750 753 755 756 758 759 760 761 762 761 760 761 765 769 765 761 765 767 773 787 792 800 799 790 784 778 778 779 781 785 788 789 785 786 788 784 784 792 796 794 797 796 793 795 794 793 792 793 796 798
796 795 793 792 791 789 788 786 785 784 783 782 781 779 778 777 775 774 773 772 771 770 769 769 769 768 769 768 768 768 766 766 760 747 741 742 743 746 749 751 753 756 757 758 759 760 759 758 757 758 765 771 765 760 767 770 776 785 787 794 791 783 783 778 775 778 778 780 785 787 786 789 786 782 786 791 799 801 797 793 791 793 792 792 793 793 796 799
796 794 793 792 790 788 787 785 784 783 782 781 780 779 777 776 775 773 772 771 770 769 768 768 768 768 768 768 769 768 768 768 755 741 742 742 742 745 747 750 753 755 756 758 759 759 759 757 756 759 765 771 768 764 767 765 770 783 782 780 779 778 782 776 772 776 776 778 783 786 789 790 786 785 788 790 800 801 793 789 787 786 787 789 791 793 796 799
795 793 792 791 789 788 786 784 783 781 781 779 779 777 776 775 773 772 771 770 769 768 768 768 767 767 768 768 768 768 769 765 748 741 744 742 743 744 746 750 752 754 756 758 758 758 758 756 759 764 767 770 769 767 764 758 761 778 780 772 773 776 778 773 771 774 775 779 785 786 786 786 789 792 789 789 795 791 785 784 783 783 784 786 789 793 796 799
794 793 791 790 788 787 785 783 782 780 779 778 777 776 775 774 772 772 770 769 768 767 767 767 767 767 767 768 768 768 770 760 742 742 744 741 744 744 746 749 751 754 755 756 757 758 758 758 762 764 767 770 768 763 758 755 757 771 779 772 771 775 774 770 770 773 774 780 782 780 783 787 792 794 790 790 790 785 782 780 780 782 783 786 790 793 796 799
793 792 790 789 787 786 784 782 780 779 778 777 776 775 774 773 772 770 769 768 767 767 767 766 767 767 767 768 767 768 768 754 741 742 743 742 744 743 747 749 750 753 753 755 755 755 757 759 761 760 768 768 762 759 754 760 765 768 775 771 769 772 770 767 771 774 774 779 780 780 787 790 789 790 791 793 788 783 781 780 781 783 785 788 791 794 796 799
792 791 789 788 786 785 783 781 779 778 777 775 775 774 773 772 771 769 768 767 766 766 765 765 766 766 768 767 768 769 758 743 739 742 742 742 743 743 746 746 749 751 752 754 752 754 756 758 758 756 764 763 757 757 753 765 774 766 767 768 768 771 769 768 772 775 776 778 780 786 792 791 786 787 794 792 786 783 781 782 783 785 788 790 792 794 796 798
791 789 788 787 785 784 782 780 779 777 775 774 773 773 772 771 770 768 767 766 765 765 764 765 766 766 769 767 769 769 748 735 740 740 740 742 742 743 744 745 748 749 751 752 751 752 752 753 751 747 754 757 756 756 752 759 762 756 760 763 766 772 769 769 774 774 776 779 781 788 796 793 787 792 800 792 783 783 783 786 786 786 790 792 793 794 796 798
790 788 787 785 784 782 780 779 777 776 774 773 772 772 771 770 769 767 766 765 764 764 764 764 765 767 768 767 771 765 742 736 740 738 740 741 741 743 743 744 746 748 750 750 750 750 748 747 743 745 754 755 754 755 751 748 746 748 757 765 769 769 769 771 776 777 777 782 782 785 794 795 792 797 799 790 783 783 785 788 788 788 791 791 793 794 796 797
789 787 786 784 782 780 779 778 776 775 773 772 772 771 770 769 768 767 765 764 764 764 764 764 766 767 767 768 767 753 737 738 739 737 740 740 741 742 742 745 745 747 749 748 749 747 747 744 741 751 755 751 757 761 753 742 741 744 749 767 770 765 774 776 776 776 775 783 780 780 799 805 801 799 793 786 784 784 786 789 788 788 790 791 793 795 796 797
788 787 785 783 781 779 778 776 774 773 772 771 770 769 769 768 767 766 765 764 764 764 764 764 765 766 770 767 752 740 736 737 738 738 739 740 741 742 743 745 745 747 748 747 747 745 745 744 743 750 747 750 759 757 750 741 743 747 747 760 767 772 786 779 773 775 775 781 774 778 809 816 803 796 789 785 785 787 790 790 789 789 790 792 793 795 796 796
788 786 784 782 780 778 776 775 774 772 771 770 769 768 768 767 767 766 765 764 764 764 764 765 766 767 771 761 741 737 738 736 738 738 738 740 740 742 743 744 745 746 747 746 744 743 744 742 742 746 745 749 753 749 752 751 749 752 754 759 766 784 798 781 771 777 780 782 771 779 811 815 802 796 790 785 786 789 793 792 789 789 789 791 793 795 797 796
788 785 783 781 779 777 775 774 773 771 770 769 768 767 766 766 766 765 765 765 764 765 765 766 766 767 769 757 739 737 738 736 738 736 737 739 739 741 742 743 744 745 746 745 743 742 742 741 745 753 752 747 750 759 766 764 757 757 767 774 770 785 800 786 774 773 780 783 772 783 809 811 801 796 789 785 786 789 793 793 790 789 789 791 793 795 797 795
787 785 782 780 778 776 774 772 771 770 769 768 767 766 765 766 765 765 766 764 765 765 766 768 766 767 769 756 740 737 737 736 736 735 736 737 737 739 740 741 742 744 745 743 742 741 739 742 746 752 754 754 760 770 774 775 771 762 770 781 773 781 795 789 780 770 772 781 778 785 805 809 800 794 789 786 787 790 793 794 792 792 790 790 793 794 795 795
786 784 781 779 777 775 773 772 770 769 768 767 766 765 765 765 764 765 765 765 766 765 766 766 764 768 763 747 740 740 736 735 734 734 734 735 736 736 738 740 741 742 743 741 742 741 740 744 751 754 757 763 765 770 782 792 787 772 769 775 769 772 783 788 786 773 768 779 785 786 797 803 797 792 792 788 787 791 794 796 795 794 793 791 792 794 794 795
785 783 780 778 776 775 773 771 770 769 767 766 765 765 764 764 764 764 765 765 765 766 768 764 766 773 762 743 741 737 731 732 732 732 733 734 734 735 736 738 739 742 744 746 745 744 746 748 755 764 766 769 768 772 788 791 781 774 771 772 769 764 773 783 783 775 770 779 788 791 796 799 797 794 794 790 788 791 794 796 797 795 795 794 792 793 794 795
785 782 780 777 776 774 773 771 769 768 766 765 765 764 763 762 763 763 764 765 766 768 768 763 763 766 754 740 735 730 727 730 731 731 732 732 733 734 735 736 738 743 751 757 754 749 752 757 764 774 776 774 771 771 777 772 764 764 762 764 766 761 766 771 771 769 767 779 791 793 797 798 799 799 796 793 791 792 794 795 796 795 795 795 795 794 793 795
784 782 779 777 775 773 772 770 769 767 766 765 764 764 764 763 763 764 763 763 761 758 756 754 752 749 743 735 730 728 730 731 732 732 731 731 732 734 736 737 741 747 754 761 761 752 753 768 775 776 775 770 765 762 762 759 754 756 759 761 760 758 762 763 766 765 759 777 793 788 792 798 798 799 795 793 793 794 797 797 798 798 797 797 797 796 795 795
783 781 779 777 775 773 771 770 768 767 766 766 765 766 765 763 764 764 761 758 752 747 748 746 742 742 738 732 727 727 731 735 733 731 732 731 730 739 743 742 751 758 756 755 757 753 756 774 775 767 765 760 757 755 755 756 754 756 760 762 761 757 758 758 760 762 754 773 792 786 791 798 794 796 794 793 796 797 797 797 799 800 799 799 798 798 797 795
783 781 778 777 775 773 772 769 768 767 766 766 765 766 763 759 759 757 756 758 749 741 745 742 739 739 732 728 726 724 731 740 739 733 731 731 733 744 747 746 756 761 755 754 758 762 768 775 767 756 754 753 753 751 752 755 754 758 759 763 765 756 760 764 757 755 753 769 790 789 793 797 791 792 793 794 796 795 794 794 797 799 800 801 800 799 798 797
783 780 778 776 774 773 771 770 769 767 766 765 765 764 760 755 755 753 754 760 753 740 738 739 740 739 733 730 727 726 735 741 743 737 729 733 738 742 746 751 756 757 756 759 762 771 777 770 757 749 748 750 754 751 752 755 754 757 759 765 766 753 764 780 768 758 754 761 781 787 793 796 791 793 794 794 795 794 794 793 794 797 799 800 799 798 798 798
782 779 778 775 773 773 771 770 769 766 764 764 764 760 756 755 755 755 756 759 757 743 732 732 733 735 734 731 728 732 738 737 738 737 728 734 740 740 745 749 754 757 757 756 758 765 767 755 745 746 747 749 754 752 753 759 759 757 754 759 761 748 754 769 764 761 759 760 769 782 802 804 795 799 801 799 801 799 797 796 797 797 797 798 798 798 797 797
781 780 778 775 774 772 770 769 767 765 765 764 762 756 754 756 754 755 758 764 763 744 731 729 730 731 729 728 730 731 735 736 733 730 725 730 737 741 744 743 749 759 756 752 756 760 756 742 737 746 749 747 753 754 751 757 762 759 750 747 748 745 750 757 755 764 779 783 771 776 813 821 798 797 804 806 809 804 800 800 799 799 797 798 799 799 798 797
780 779 777 775 773 771 771 768 765 766 765 761 759 755 755 756 754 755 760 774 773 748 736 737 735 735 730 729 729 728 741 742 726 722 724 728 730 735 745 744 744 753 750 746 750 753 748 737 734 744 748 748 752 753 747 747 760 763 747 736 738 740 747 753 751 763 784 789 770 763 797 821 808 798 798 803 810 808 803 802 800 798 799 798 798 798 798 798
780 778 776 775 772 772 772 767 765 765 762 759 757 756 756 754 754 755 765 787 779 747 740 743 737 736 734 730 726 735 754 743 724 722 722 728 728 729 745 749 746 748 740 743 755 751 742 740 739 740 744 750 754 754 744 739 756 761 739 730 737 739 742 745 745 756 763 767 770 761 774 809 818 803 792 795 807 812 808 804 801 798 798 798 796 796 797 798
779 777 776 775 773 773 772 768 767 763 760 759 756 757 756 754 754 756 776 800 778 742 740 741 734 732 730 729 727 736 744 732 733 733 718 725 731 731 747 749 747 749 736 745 765 749 734 741 743 739 744 750 750 747 738 736 751 750 731 727 733 735 739 737 742 752 749 764 790 778 770 804 820 799 789 793 802 811 808 802 799 796 795 796 795 795 795 795
778 776 775 773 773 772 771 770 768 763 760 758 757 758 754 754 755 760 786 799 766 740 740 737 735 735 731 733 734 735 734 730 738 733 718 727 730 731 745 743 743 750 738 740 755 743 731 732 731 734 743 745 740 734 729 735 744 735 726 729 730 732 735 734 743 751 750 770 794 781 771 801 819 801 793 798 799 802 800 795 794 792 792 793 793 793 794 794
776 775 773 772 771 771 771 769 765 762 760 758 759 757 753 755 761 779 800 788 756 743 741 738 740 739 736 741 742 739 737 735 734 730 728 731 730 730 736 734 737 747 743 739 742 739 728 721 721 727 733 731 728 727 724 728 732 727 729 736 738 738 736 738 741 745 765 782 778 766 762 784 811 807 793 792 788 785 789 791 791 790 790 791 790 791 792 793
775 774 772 770 770 771 771 768 762 761 760 759 758 754 755 760 769 794 798 767 751 750 741 741 742 738 740 747 746 742 740 736 732 736 739 736 737 740 741 743 744 750 754 749 745 739 731 729 727 723 720 719 725 729 727 724 725 730 737 744 753 753 748 754 752 753 784 794 769 754 755 773 802 803 787 782 776 774 781 785 786 788 790 788 787 788 789 790
773 772 771 769 769 768 769 766 761 761 760 759 758 754 762 776 784 794 779 753 758 759 742 742 742 738 742 745 745 743 741 739 734 737 743 744 748 747 750 755 753 760 769 760 753 746 738 733 727 720 716 716 731 742 740 734 732 738 743 750 768 775 773 781 778 777 791 786 763 750 756 782 797 785 775 775 771 771 774 775 778 781 784 784 783 785 786 787
772 770 768 768 767 765 765 763 761 762 760 758 759 757 771 795 798 786 768 757 761 753 739 739 738 736 742 746 746 741 741 744 738 739 741 745 752 749 746 746 744 758 767 760 758 756 749 737 723 725 725 718 731 749 755 750 742 745 749 756 774 785 794 802 793 790 792 779 760 745 758 795 800 777 770 770 767 767 767 769 773 774 777 779 779 781 784 785
770 768 767 766 765 763 762 763 761 761 761 758 762 769 782 800 793 774 765 759 750 742 739 739 738 738 742 746 744 738 743 747 738 740 745 746 754 755 749 745 741 747 753 756 757 755 761 756 734 732 735 726 731 741 745 745 743 743 740 746 763 769 784 798 793 793 795 781 763 752 771 805 803 781 768 762 762 763 764 766 768 771 773 775 777 779 782 784
769 767 766 763 763 761 760 762 761 761 762 761 769 784 793 796 784 770 765 758 748 744 742 739 741 746 746 745 741 735 743 749 739 740 748 750 755 756 752 749 743 742 750 762 762 752 759 757 732 724 726 724 731 730 727 739 750 743 732 743 758 751 755 774 775 775 777 778 773 769 783 794 786 778 770 765 767 763 764 768 768 773 773 774 779 780 781 784
768 766 765 762 760 759 759 760 760 760 761 764 778 790 788 782 774 765 759 754 751 749 750 749 747 752 757 752 747 740 740 747 745 746 749 750 754 755 752 748 742 741 750 763 766 760 763 757 734 728 728 721 726 726 721 738 754 747 742 750 747 731 738 762 771 761 761 781 790 787 796 796 786 787 784 781 781 771 770 774 773 776 776 776 781 780 781 783
767 766 764 760 757 756 757 758 759 760 760 767 783 787 776 767 762 757 753 751 750 749 757 765 758 759 766 763 757 750 746 750 750 751 755 755 759 760 755 750 744 743 747 755 761 758 764 766 743 735 741 726 715 721 721 724 736 748 754 746 733 731 737 752 773 776 773 789 796 792 800 803 801 803 795 789 789 781 777 777 777 779 779 781 783 782 783 783
766 765 763 756 753 753 754 756 758 759 761 771 785 782 771 764 755 751 751 750 750 752 762 772 766 763 769 770 766 756 753 759 757 757 764 766 768 764 758 757 751 747 745 750 759 755 758 772 754 734 741 729 710 724 736 727 722 734 739 730 735 756 759 755 771 787 788 794 804 808 806 803 804 804 796 791 790 785 781 780 780 781 782 784 786 785 786 785
765 767 763 753 749 751 753 755 755 758 765 778 786 778 768 763 754 748 750 749 751 758 767 771 768 769 771 771 773 765 760 765 763 766 774 776 776 768 761 763 759 754 750 749 759 756 754 773 769 740 732 728 720 733 750 746 731 727 729 729 736 749 757 757 759 770 780 788 808 828 828 818 812 803 793 788 784 782 784 785 785 785 785 786 787 789 789 789
765 769 764 749 747 751 751 753 755 762 770 775 777 772 766 763 756 748 747 749 751 757 767 770 770 777 775 769 772 770 765 767 767 772 777 776 777 772 765 766 763 759 755 751 757 758 755 768 775 754 736 737 740 741 746 748 743 740 743 747 746 742 745 753 753 754 762 778 802 827 833 825 811 802 797 790 781 778 782 787 789 788 789 789 789 790 790 790
766 772 762 747 748 750 749 756 761 764 769 771 769 768 764 761 757 751 747 746 748 751 757 764 770 777 776 772 773 773 770 771 772 777 779 775 779 780 771 766 765 762 760 759 761 764 766 770 775 769 759 754 749 736 731 735 738 742 745 747 750 748 750 765 772 756 746 762 787 809 827 824 803 795 797 792 785 781 780 785 789 790 791 792 791 791 791 791
769 772 759 746 748 748 751 763 763 758 764 769 765 762 761 758 756 754 749 747 751 752 751 757 764 770 771 771 774 774 773 775 779 780 778 774 777 780 772 765 765 762 764 771 769 763 766 770 773 774 767 759 749 734 727 728 729 734 738 737 742 746 750 769 782 768 755 765 774 789 817 822 801 792 794 791 787 784 783 785 788 791 792 793 794 794 793 793
770 768 754 746 747 746 754 767 762 757 762 762 757 757 758 757 758 757 754 753 756 757 757 759 762 766 768 768 771 775 776 779 783 781 778 776 775 774 769 765 766 764 767 776 773 762 763 769 775 779 768 755 745 732 725 725 730 739 740 734 738 743 744 753 762 761 770 782 781 794 821 823 806 797 796 794 789 785 786 788 789 793 794 795 797 797 797 797
768 763 753 748 746 746 758 767 764 762 762 758 758 760 759 760 761 762 761 760 759 760 762 762 761 764 765 765 768 774 778 784 786 780 778 781 777 770 767 766 767 769 771 776 775 770 774 776 780 790 791 780 765 752 744 740 739 746 745 737 737 739 739 745 750 757 775 784 782 800 823 821 807 801 799 798 793 787 788 790 792 795 796 796 799 800 801 801
768 763 754 746 742 746 756 758 758 763 763 761 763 763 762 763 763 762 764 762 758 760 764 764 760 760 761 763 768 773 775 781 785 782 779 780 775 770 769 768 768 769 770 771 769 770 777 780 781 794 808 809 800 788 778 767 754 750 748 743 740 741 743 749 759 773 787 787 782 796 814 814 807 807 806 802 796 791 791 792 794 796 798 799 800 802 803 803
772 770 762 752 744 745 751 750 751 761 763 764 769 765 763 767 764 760 762 764 761 760 762 762 759 760 763 765 770 775 774 775 781 783 781 781 777 772 771 769 769 769 769 767 766 767 774 777 777 785 795 799 795 784 772 766 763 759 754 748 745 746 747 750 765 782 786 786 790 793 799 808 812 812 811 806 800 796 794 794 796 797 799 802 803 804 805 805
773 772 765 762 758 754 756 754 754 761 762 764 772 769 764 766 766 764 764 763 763 762 763 764 761 764 770 770 772 777 776 774 778 781 780 780 777 772 770 770 770 769 767 766 765 768 779 783 777 777 781 778 774 768 760 759 763 761 759 756 751 749 748 751 765 775 775 788 804 796 789 803 812 808 808 808 805 800 795 796 799 799 800 803 804 806 807 806
772 769 760 762 767 765 765 764 760 762 764 764 769 769 767 768 770 771 769 764 763 765 767 770 767 765 769 771 777 783 780 779 783 782 779 779 777 775 774 771 770 769 768 768 767 770 784 789 779 775 776 770 765 763 759 759 762 760 759 759 753 750 750 752 757 761 766 784 798 792 791 802 804 800 800 801 800 796 794 795 797 798 801 804 805 807 807 807
772 772 763 761 766 766 764 763 761 764 768 769 770 770 770 773 773 773 771 769 770 768 768 775 774 768 768 770 776 785 786 788 792 788 782 781 779 779 781 779 775 771 770 774 772 772 783 787 779 777 778 771 766 765 760 760 764 762 760 758 754 752 752 752 755 757 764 777 782 786 798 805 804 801 796 791 789 789 789 792 795 799 803 805 808 810 809 809
777 779 774 770 769 765 762 762 761 765 769 770 774 773 770 773 776 774 771 773 778 774 769 775 778 772 772 772 775 782 783 783 790 788 782 783 783 782 784 786 781 776 775 778 776 775 782 786 777 776 783 781 772 766 762 763 766 766 763 760 757 756 756 757 759 762 771 782 784 789 804 810 806 803 795 787 787 789 791 795 798 801 804 806 810 813 813 812
780 780 777 779 777 768 765 764 761 767 773 773 775 774 771 774 775 774 774 772 775 776 772 774 777 775 775 777 779 782 779 776 780 780 777 780 782 780 781 782 781 782 781 781 781 779 783 787 779 778 793 792 774 766 765 763 765 769 769 767 762 762 763 761 760 763 773 786 792 798 807 809 802 798 794 790 789 792 797 800 801 803 805 808 813 816 816 816
781 778 775 779 781 772 767 766 763 770 778 776 773 773 773 775 772 774 781 777 772 774 773 772 776 778 781 784 784 782 778 775 776 774 773 774 773 773 776 776 776 781 783 784 786 783 783 789 789 789 798 793 777 771 766 767 779 785 776 770 766 762 762 762 761 762 765 775 789 798 802 799 795 794 795 795 795 798 801 802 804 806 807 810 814 817 818 819